TimeCDT,TemperatureF,Dew PointF,Humidity,Sea Level PressureIn,VisibilityMPH,Wind Direction,Wind SpeedMPH,Gust SpeedMPH,PrecipitationIn,Events,Conditions,WindDirDegrees,DateUTC
12:15 AM,49.3,43.7,81,30.17,10.0,ENE,11.5,-,N/A,,Overcast,60,2013-04-17 05:15:00
12:35 AM,49.1,43.7,82,30.17,10.0,ENE,11.5,-,N/A,Rain-Thunderstorm,Light Thunderstorms and Rain,60,2013-04-17 05:35:00
12:55 AM,49.1,43.3,81,30.18,10.0,ENE,11.5,-,N/A,,Overcast,60,2013-04-17 05:55:00
1:15 AM,49.1,42.8,79,30.16,10.0,NE,11.5,-,N/A,,Overcast,50,2013-04-17 06:15:00
1:35 AM,48.6,40.8,75,30.16,10.0,ENE,13.8,-,N/A,Thunderstorm,Overcast,70,2013-04-17 06:35:00
1:55 AM,47.8,41.4,78,30.15,10.0,ENE,15.0,19.6,0.02,Rain,Light Rain,70,2013-04-17 06:55:00
2:15 AM,47.8,41.4,78,30.15,10.0,ENE,12.7,-,N/A,,Overcast,60,2013-04-17 07:15:00
2:35 AM,47.5,41.4,79,30.15,10.0,ENE,15.0,-,0.01,Rain,Light Rain,60,2013-04-17 07:35:00
2:55 AM,47.5,41.4,79,30.14,10.0,ENE,15.0,-,0.01,,Light Drizzle,60,2013-04-17 07:55:00
3:15 AM,47.3,41.4,80,30.15,10.0,ENE,15.0,-,N/A,,Overcast,60,2013-04-17 08:15:00
3:35 AM,47.3,41.0,79,30.14,10.0,ENE,17.3,20.7,N/A,,Overcast,60,2013-04-17 08:35:00
3:55 AM,46.9,40.5,78,30.13,10.0,ENE,16.1,-,N/A,,Overcast,60,2013-04-17 08:55:00
4:15 AM,46.9,41.0,80,30.13,10.0,ENE,13.8,-,N/A,,Overcast,60,2013-04-17 09:15:00
4:35 AM,46.9,41.2,80,30.13,10.0,ENE,11.5,-,N/A,,Overcast,70,2013-04-17 09:35:00
4:55 AM,46.6,41.0,81,30.11,10.0,East,13.8,-,N/A,Rain,Light Rain,80,2013-04-17 09:55:00
5:15 AM,46.4,41.2,82,30.11,10.0,ENE,12.7,-,N/A,,Overcast,70,2013-04-17 10:15:00
5:35 AM,46.4,41.2,82,30.09,7.0,East,19.6,23.0,N/A,,Overcast,80,2013-04-17 10:35:00
5:55 AM,46.4,41.0,81,30.10,10.0,East,19.6,25.3,N/A,,Overcast,80,2013-04-17 10:55:00
6:15 AM,46.0,41.0,83,30.10,7.0,ENE,23.0,26.5,N/A,Thunderstorm,Overcast,70,2013-04-17 11:15:00
6:35 AM,45.5,41.9,87,30.10,5.0,East,19.6,-,N/A,,Overcast,80,2013-04-17 11:35:00
6:55 AM,45.0,42.4,91,30.12,4.0,East,13.8,-,N/A,,Overcast,80,2013-04-17 11:55:00
7:15 AM,45.0,43.0,93,30.10,1.5,East,16.1,-,N/A,,Overcast,90,2013-04-17 12:15:00
7:35 AM,45.0,43.2,93,30.10,1.5,East,17.3,-,N/A,,Overcast,80,2013-04-17 12:35:00
7:55 AM,45.0,43.5,95,30.09,1.2,East,13.8,-,N/A,Thunderstorm,Overcast,80,2013-04-17 12:55:00
8:15 AM,45.5,43.9,94,30.09,1.5,East,16.1,-,N/A,,Overcast,90,2013-04-17 13:15:00
8:35 AM,45.9,44.6,95,30.08,1.2,East,12.7,-,N/A,,Overcast,90,2013-04-17 13:35:00
8:55 AM,46.6,45.5,96,30.07,2.5,East,12.7,-,N/A,,Overcast,100,2013-04-17 13:55:00
9:15 AM,47.8,46.8,96,30.05,3.0,East,16.1,-,N/A,,Overcast,100,2013-04-17 14:15:00
9:35 AM,48.2,46.9,95,30.05,1.8,ESE,12.7,-,N/A,,Overcast,110,2013-04-17 14:35:00
9:55 AM,48.7,47.7,96,30.05,2.0,ESE,10.4,16.1,N/A,,Overcast,110,2013-04-17 14:55:00
10:15 AM,49.5,48.4,96,30.03,2.5,ESE,11.5,-,N/A,,Overcast,120,2013-04-17 15:15:00
10:35 AM,50.7,49.6,96,30.02,2.0,ESE,12.7,-,N/A,,Overcast,120,2013-04-17 15:35:00
10:55 AM,51.8,50.5,95,30.02,1.8,ESE,10.4,-,N/A,,Overcast,120,2013-04-17 15:55:00
11:15 AM,52.7,51.6,96,30.02,2.0,SE,6.9,-,N/A,,Overcast,130,2013-04-17 16:15:00
11:35 AM,54.0,52.9,96,30.01,1.8,SE,5.8,-,N/A,,Overcast,130,2013-04-17 16:35:00
11:55 AM,54.9,53.8,96,30.00,2.0,SE,4.6,-,N/A,,Overcast,140,2013-04-17 16:55:00
12:15 PM,56.3,55.4,97,29.97,2.0,SE,9.2,-,N/A,,Overcast,130,2013-04-17 17:15:00
12:35 PM,58.5,57.2,96,29.96,2.5,SE,10.4,-,N/A,,Overcast,130,2013-04-17 17:35:00
12:55 PM,60.3,59.0,96,29.95,3.0,SSE,6.9,-,N/A,,Overcast,150,2013-04-17 17:55:00
1:15 PM,62.2,60.3,93,29.94,3.0,SSE,6.9,-,N/A,,Overcast,160,2013-04-17 18:15:00
1:35 PM,63.9,61.7,93,29.92,3.0,SSE,10.4,-,N/A,,Overcast,150,2013-04-17 18:35:00
1:55 PM,66.4,62.8,88,29.91,4.0,SSE,10.4,-,N/A,,Mostly Cloudy,150,2013-04-17 18:55:00
2:15 PM,66.4,62.6,88,29.93,4.0,WNW,8.1,-,N/A,,Mostly Cloudy,300,2013-04-17 19:15:00
2:35 PM,64.4,60.8,88,29.92,4.0,NNW,11.5,-,N/A,,Mostly Cloudy,330,2013-04-17 19:35:00
2:55 PM,59.0,56.7,92,29.91,2.5,North,13.8,17.3,N/A,,Overcast,360,2013-04-17 19:55:00
3:35 PM,54.3,52.5,94,29.94,2.0,North,26.5,33.4,N/A,Thunderstorm,Overcast,350,2013-04-17 20:35:00
3:55 PM,50.9,49.1,94,29.92,2.0,North,21.9,28.8,N/A,,Overcast,360,2013-04-17 20:55:00
4:15 PM,49.3,47.5,94,29.91,7.0,NNE,17.3,28.8,N/A,,Overcast,20,2013-04-17 21:15:00
4:35 PM,48.2,46.6,94,29.93,10.0,NNE,18.4,28.8,N/A,,Overcast,20,2013-04-17 21:35:00
4:55 PM,47.3,45.5,93,29.92,10.0,NNE,18.4,25.3,N/A,,Overcast,20,2013-04-17 21:55:00
5:15 PM,47.3,45.5,93,29.89,10.0,NE,23.0,29.9,N/A,Thunderstorm,Overcast,50,2013-04-17 22:15:00
5:35 PM,49.8,48.0,94,29.88,10.0,NE,18.4,23.0,N/A,Thunderstorm,Overcast,50,2013-04-17 22:35:00
5:55 PM,51.6,49.6,93,29.85,10.0,ENE,16.1,23.0,N/A,,Overcast,60,2013-04-17 22:55:00
6:15 PM,52.0,50.0,93,29.82,10.0,ENE,20.7,-,N/A,,Overcast,70,2013-04-17 23:15:00
6:35 PM,52.7,50.5,92,29.82,10.0,ENE,16.1,25.3,N/A,,Overcast,60,2013-04-17 23:35:00
6:55 PM,52.7,50.5,92,29.81,10.0,East,18.4,-,N/A,,Mostly Cloudy,80,2013-04-17 23:55:00
7:15 PM,52.2,50.2,93,29.80,7.0,East,16.1,-,N/A,,Scattered Clouds,80,2013-04-18 00:15:00
7:35 PM,52.7,50.9,94,29.78,10.0,East,17.3,-,N/A,,Scattered Clouds,80,2013-04-18 00:35:00
7:55 PM,52.9,50.9,93,29.78,10.0,ENE,19.6,-,N/A,,Scattered Clouds,60,2013-04-18 00:55:00
8:15 PM,53.6,51.4,92,29.78,10.0,ENE,16.1,-,N/A,,Scattered Clouds,70,2013-04-18 01:15:00
8:35 PM,53.8,51.6,92,29.76,10.0,East,17.3,21.9,N/A,,Scattered Clouds,80,2013-04-18 01:35:00
8:55 PM,54.0,52.2,94,29.75,7.0,East,17.3,20.7,N/A,,Mostly Cloudy,80,2013-04-18 01:55:00
9:15 PM,54.0,52.2,94,29.77,5.0,East,16.1,-,N/A,,Overcast,80,2013-04-18 02:15:00
9:35 PM,54.7,53.1,94,29.79,5.0,North,11.5,16.1,N/A,,Overcast,10,2013-04-18 02:35:00
9:55 PM,54.7,52.7,93,29.82,7.0,NNW,20.7,-,N/A,Thunderstorm,Thunderstorm,330,2013-04-18 02:55:00
10:15 PM,53.6,51.8,94,29.75,10.0,NE,21.9,28.8,N/A,Thunderstorm,Thunderstorm,50,2013-04-18 03:15:00
10:35 PM,54.5,52.3,92,29.74,7.0,ENE,17.3,-,N/A,Thunderstorm,Mostly Cloudy,70,2013-04-18 03:35:00
10:55 PM,54.3,52.3,93,29.73,7.0,ENE,12.7,-,N/A,,Scattered Clouds,70,2013-04-18 03:55:00
11:15 PM,54.1,52.3,94,29.70,7.0,East,13.8,-,N/A,,Scattered Clouds,80,2013-04-18 04:15:00
11:35 PM,54.5,52.7,94,29.70,5.0,East,13.8,-,N/A,,Scattered Clouds,80,2013-04-18 04:35:00
11:55 PM,54.3,52.7,94,29.68,5.0,East,13.8,-,N/A,,Mostly Cloudy,80,2013-04-18 04:55:00